{"data":{"norad_id":54650,"intl_designator":"2022-166J","name":"ONEWEB-0583","alt_names":[],"object_type":"PAYLOAD","status":"ACTIVE","operator":null,"country":"UK","launch_date":"2022-12-08","launch_site_code":"AFETR","launch_vehicle":null,"mission":null,"orbit_class":"UNKNOWN","rcs_meters":null,"size_class":null,"mass_kg":null,"dimensions":null,"purposes":["comms"],"wikipedia_slug":null,"has_3d_model":false,"image_url":null,"decayed_at":null,"tle_current":{"epoch":"2026-05-24T23:31:03.309888Z","epoch_age_seconds":77580,"freshness":"FRESH","line1":"1 54650U 22166J   26144.97989942 -.00000021  00000+0 -81254-4 0  9999","line2":"2 54650  87.9252 248.6152 0002102  98.8743 261.2629 13.21825106168469","mean_motion":13.21825106,"eccentricity":0.0002102,"inclination_deg":87.9252,"raan_deg":248.6152,"arg_perigee_deg":98.8743,"mean_anomaly_deg":261.2629,"bstar":-8.1254e-5,"rev_number":16846,"period_min":108.94028214955,"perigee_km":1176.1685263844,"apogee_km":1179.3450241275,"semimajor_km":7555.8937752559,"source":"CELESTRAK","updated_at":"2026-05-25T13:38:22.628187Z"}}}